Wind_Speed
7 7 7 7 6 4 2 4 6 9 10 10 11 9 8 9 15 21 20 17 16 14 5 3 3 2 11 11 10 9 10 8 8 5 5 7 5 1 2 3 4 6 8
7 8 8 8 6 4 2 1 5 8 11 12 11 10 8 8 10 8 4 7 11 9 9 8 8 12 13 10 8 9 8 6 3 4 4 6 6 3 3 3 4 6 8
7 7 8 8 8 7 5 2 2 7 10 11 13 12 11 11 8 7 6 9 10 8 9 11 10 10 8 4 3 4 6 5 6 6 5 6 6 6 5 5 5 6 8
6 8 8 9 10 10 9 7 5 7 8 10 13 13 12 10 9 9 7 5 5 5 8 6 5 5 4 3 4 4 5 6 6 6 7 7 8 9 8 7 6 6 8
6 7 9 10 11 11 12 13 12 10 9 9 10 12 10 10 8 7 6 5 6 6 7 5 5 5 5 5 6 5 5 5 6 4 4 8 8 9 9 9 7 7 9
5 6 8 9 10 12 13 14 14 14 13 12 11 12 11 10 7 6 6 8 6 3 4 3 4 3 4 5 4 4 4 4 4 3 6 7 8 9 8 9 8 7 6
3 4 5 7 9 13 12 13 14 14 15 13 12 11 11 10 10 9 9 7 7 5 4 3 2 2 3 3 4 5 5 5 6 7 7 9 8 9 9 8 8 7 7
3 3 4 5 7 9 11 12 11 11 12 12 12 12 11 10 9 6 6 6 6 5 4 2 1 2 2 4 5 4 5 5 6 6 8 9 10 10 10 9 9 10 8
2 2 3 4 5 6 7 7 9 10 9 10 11 10 9 10 8 6 5 6 5 3 2 3 4 4 4 5 4 4 5 7 9 10 10 9 10 11 10 9 9 9 7
2 2 1 2 4 6 5 5 6 7 7 7 8 8 7 9 7 4 6 6 6 4 4 4 4 4 5 6 5 6 5 7 10 11 12 11 11 11 10 8 6 6 6
4 3 2 2 4 5 6 6 6 5 6 7 8 8 8 6 7 6 5 6 5 6 6 5 5 4 5 5 6 8 10 10 11 13 12 12 11 11 10 9 8 8 6
6 6 5 4 4 5 6 7 8 9 8 7 7 7 6 7 8 8 7 7 7 7 7 8 6 7 8 8 9 9 10 11 13 13 13 13 12 12 11 10 10 9 7
7 7 7 7 6 6 6 6 7 8 12 11 10 11 11 11 12 10 10 10 10 10 9 9 9 10 10 10 11 12 13 14 15 15 16 16 14 14 13 12 11 9 7
9 10 10 10 9 8 8 8 8 8 9 11 12 12 13 13 13 13 12 13 13 13 12 11 12 13 14 13 13 14 15 16 16 17 18 17 16 16 15 15 13 11 11
13 13 13 12 13 12 11 11 10 10 11 12 12 13 13 12 11 13 13 13 14 15 16 16 16 16 17 16 17 18 19 19 20 21 20 19 20 20 19 18 17 16 16
19 18 16 16 16 16 16 15 15 14 14 15 15 15 15 14 15 14 15 16 17 18 19 19 19 19 19 19 19 20 21 22 22 23 23 22 23 23 23 23 23 22 20
22 20 20 20 19 19 20 21 20 18 18 19 19 17 18 17 18 18 18 19 19 21 23 23 22 21 21 20 21 21 21 21 22 24 25 26 26 27 28 28 27 26 26
22 22 23 22 21 21 22 23 24 25 25 23 22 22 21 20 20 21 22 25 26 27 27 25 24 24 23 23 24 23 23 23 25 27 28 28 29 29 30 30 31 30 29
19 20 21 22 23 23 24 26 27 27 29 29 26 27 25 24 24 26 28 31 31 29 28 27 25 24 23 24 24 25 26 26 26 27 27 28 28 29 31 31 31 31 31
20 22 22 23 25 26 27 28 29 29 29 30 31 29 27 29 32 32 33 34 35 34 32 30 27 26 25 25 25 25 26 29 30 30 30 30 29 31 32 32 32 33 34
22 24 26 27 28 29 29 29 28 29 29 30 29 28 29 30 32 33 35 36 36 36 36 33 31 29 28 27 26 27 28 29 30 31 31 32 32 33 33 33 33 34 35
24 24 26 29 30 30 29 28 28 28 28 28 27 26 26 29 30 32 33 35 36 36 36 36 35 34 33 31 30 29 30 30 31 31 31 32 34 33 33 34 35 36 36
28 28 28 28 28 29 29 28 27 27 26 25 25 25 25 26 27 28 28 29 31 32 33 34 35 36 36 36 35 33 33 32 30 30 33 33 33 34 34 33 35 36 37
27 28 28 27 26 25 25 26 25 24 24 23 23 23 23 23 23 24 24 24 25 27 28 29 30 30 32 35 36 37 37 35 33 32 32 34 35 34 38 37 36 36 36
27 27 25 22 28 27 24 23 22 22 22 22 21 21 21 21 21 22 22 23 24 24 24 25 27 28 28 29 30 32 33 32 33 35 35 35 38 38 37 39 40 38 36
22 22 22 21 23 22 22 22 21 21 21 20 19 18 18 19 18 19 19 20 20 20 20 20 21 22 22 24 25 25 25 26 26 27 30 34 37 39 38 38 38 39 40
Wind_Direction
32 27 35 37 32 31 323 265 234 209 195 191 178 190 139 156 199 216 233 226 233 232 212 306 217 152 240 255 260 254 251 259 265 253 233 215 230 255 62 64 52 39 30
41 42 42 39 39 48 7 250 214 212 200 183 186 182 164 138 142 139 151 190 186 200 218 229 245 247 247 260 266 263 254 261 238 254 229 240 244 141 126 100 77 57 46
35 40 54 52 53 52 51 42 207 194 189 186 180 179 164 165 166 185 205 231 233 228 227 248 240 246 228 227 238 249 255 248 237 249 259 228 190 169 151 141 109 74 59
51 58 50 57 61 61 63 69 80 133 153 165 174 175 170 171 171 187 196 201 201 218 207 191 214 209 183 255 268 248 225 229 240 260 234 204 190 172 167 146 131 98 72
63 54 49 64 69 70 74 77 78 92 113 138 150 159 161 164 181 188 194 199 185 191 162 169 163 186 208 243 249 241 226 229 237 241 228 203 187 178 170 157 148 105 85
87 80 69 59 75 82 84 88 94 98 103 110 126 138 145 146 161 175 183 169 165 170 152 198 220 222 254 269 272 252 247 233 242 213 199 186 176 168 162 172 168 136 102
98 47 64 73 76 91 84 90 102 112 108 115 122 126 130 136 141 137 136 142 149 167 179 187 217 205 233 250 258 261 264 229 196 179 180 163 162 155 149 156 160 157 152
126 89 99 99 86 95 103 110 112 116 124 127 127 127 134 141 141 147 139 151 169 161 148 176 220 238 283 271 240 210 200 204 192 166 157 159 154 151 148 150 150 156 147
152 108 100 118 126 116 124 123 127 137 148 146 147 146 142 139 141 160 154 173 190 199 241 257 237 250 250 235 226 211 194 189 165 166 160 159 157 166 161 154 143 145 158
200 177 121 122 140 152 155 145 150 146 157 154 163 165 175 164 175 186 201 207 216 222 249 261 260 245 221 204 208 185 183 183 180 173 166 168 171 169 165 164 155 150 173
230 248 224 185 181 170 178 183 184 176 165 158 159 164 168 182 206 236 228 219 238 243 235 239 249 227 217 204 200 186 179 186 188 185 180 181 179 175 173 176 182 193 207
239 244 252 256 244 217 198 195 194 199 209 210 203 201 203 212 227 239 246 253 252 250 248 248 243 229 217 205 195 199 199 201 199 197 195 196 191 189 186 186 191 190 186
247 252 254 255 254 254 250 230 214 215 212 221 234 235 235 240 245 248 255 253 247 248 247 245 241 232 226 216 210 211 210 212 210 207 206 204 204 204 202 205 206 202 204
252 257 264 265 262 264 265 263 258 246 239 235 237 242 248 251 249 253 252 246 250 254 254 249 241 232 228 226 226 224 225 226 225 223 220 215 216 218 219 219 221 221 227
254 259 265 270 273 271 270 269 265 258 255 247 242 243 250 252 257 253 255 262 261 256 256 251 242 234 234 233 229 228 233 234 233 232 230 227 228 230 231 233 232 231 235
257 258 263 267 270 273 273 271 272 268 267 264 259 257 253 247 250 254 256 254 254 257 260 259 256 252 245 241 238 237 236 236 237 240 240 237 237 238 237 239 240 239 240
263 264 264 264 267 271 273 274 272 271 269 269 269 265 261 258 253 250 248 249 250 252 252 253 254 257 257 253 248 244 245 244 243 242 244 243 242 241 242 242 243 243 245
265 266 266 267 269 272 274 274 273 270 267 265 267 269 267 265 262 259 257 255 251 249 251 256 261 260 260 261 263 262 256 246 245 246 245 244 246 247 249 250 250 251 251
267 267 269 271 273 275 276 274 271 270 270 269 262 261 265 267 266 261 259 259 262 263 266 267 266 267 268 269 268 267 264 261 260 257 255 256 256 256 256 255 255 254 254
272 274 271 272 276 278 279 276 272 270 270 270 268 265 260 258 260 262 262 264 266 268 268 270 271 270 268 266 264 262 263 264 263 262 262 259 257 258 259 258 257 256 255
278 277 279 280 280 281 280 277 273 269 270 270 270 267 263 259 259 261 264 265 267 271 274 274 273 271 268 267 264 263 264 263 262 263 263 264 262 262 264 264 262 260 260
279 280 281 283 285 283 280 275 270 268 269 271 271 268 264 261 259 260 264 267 269 270 271 272 271 271 270 269 266 265 265 264 265 264 264 265 264 261 261 263 264 262 261
286 292 291 289 286 282 279 277 275 273 272 272 272 269 267 266 267 266 265 266 269 271 272 270 270 270 269 269 268 266 264 265 266 266 264 262 261 263 262 263 264 262 260
276 281 288 295 290 284 279 275 275 274 274 272 271 270 269 268 268 268 267 265 264 266 268 269 269 269 270 270 268 268 267 266 265 264 265 262 261 262 266 265 265 264 262
269 271 273 281 285 281 279 278 276 275 273 271 271 271 271 271 271 270 268 268 268 267 267 269 269 269 270 271 272 272 272 267 265 264 261 262 264 265 265 265 262 261 259
267 271 277 281 278 275 277 279 279 278 278 277 275 271 269 270 271 272 273 275 275 275 276 276 275 274 273 273 274 272 272 274 272 268 267 267 266 266 265 265 266 263 261
Height
1488 1486 1485 1483 1482 1482 1483 1484 1485 1486 1487 1489 1493 1496 1497 1501 1503 1507 1511 1513 1516 1518 1522 1523 1524 1525 1528 1529 1530 1530 1532 1533 1533 1534 1535 1537 1537 1537 1536 1536 1536 1537 1536
1488 1486 1485 1484 1484 1484 1484 1484 1484 1485 1487 1489 1493 1496 1498 1501 1504 1508 1511 1512 1513 1518 1520 1522 1523 1525 1525 1527 1528 1528 1529 1531 1533 1533 1534 1535 1536 1536 1537 1537 1538 1537 1535
1489 1488 1486 1485 1484 1484 1483 1483 1483 1484 1486 1491 1493 1495 1498 1501 1505 1508 1510 1513 1515 1517 1518 1519 1520 1521 1521 1525 1526 1526 1527 1528 1530 1531 1532 1534 1534 1535 1536 1537 1537 1538 1536
1492 1490 1489 1487 1485 1484 1485 1485 1483 1483 1486 1488 1492 1495 1498 1503 1505 1508 1510 1513 1514 1515 1515 1517 1519 1520 1521 1524 1524 1525 1525 1527 1528 1528 1529 1531 1533 1534 1535 1536 1537 1538 1536
1492 1492 1491 1489 1488 1487 1486 1485 1486 1486 1488 1490 1492 1495 1500 1501 1505 1507 1510 1512 1513 1515 1516 1517 1518 1519 1521 1522 1523 1523 1524 1525 1526 1527 1527 1531 1531 1533 1534 1536 1537 1537 1537
1493 1493 1492 1492 1491 1491 1489 1488 1488 1490 1492 1494 1497 1498 1502 1503 1507 1508 1511 1512 1514 1516 1516 1518 1518 1518 1520 1521 1522 1523 1524 1524 1525 1525 1528 1529 1531 1532 1533 1535 1537 1536 1538
1494 1494 1494 1494 1493 1492 1492 1492 1492 1493 1494 1497 1499 1500 1502 1505 1507 1509 1511 1513 1514 1515 1516 1517 1518 1518 1519 1521 1522 1523 1523 1524 1524 1525 1527 1527 1529 1531 1533 1535 1535 1537 1538
1495 1496 1496 1496 1495 1494 1494 1495 1497 1497 1497 1498 1499 1501 1504 1507 1508 1510 1511 1512 1515 1515 1516 1516 1517 1518 1518 1520 1520 1519 1521 1523 1524 1526 1526 1527 1528 1531 1533 1535 1535 1536 1537
1495 1496 1496 1496 1497 1497 1498 1498 1498 1499 1501 1501 1501 1503 1505 1506 1508 1509 1510 1512 1515 1515 1515 1516 1516 1515 1517 1519 1520 1520 1520 1522 1522 1525 1527 1529 1530 1532 1534 1535 1535 1535 1536
1495 1495 1495 1496 1496 1497 1498 1499 1500 1500 1500 1502 1503 1505 1506 1506 1507 1508 1509 1511 1512 1513 1514 1514 1514 1515 1517 1518 1519 1519 1520 1523 1524 1526 1527 1529 1532 1532 1534 1535 1534 1535 1536
1496 1496 1496 1496 1496 1496 1497 1499 1500 1501 1502 1502 1502 1503 1504 1506 1507 1508 1509 1510 1510 1510 1511 1512 1513 1514 1516 1517 1518 1519 1520 1522 1524 1527 1528 1529 1530 1532 1533 1533 1534 1535 1536
1494 1496 1497 1497 1497 1497 1496 1496 1497 1498 1499 1501 1502 1503 1504 1504 1505 1506 1507 1508 1509 1509 1510 1511 1511 1512 1513 1515 1516 1518 1521 1522 1523 1525 1527 1528 1529 1530 1532 1533 1534 1534 1534
1492 1493 1495 1496 1496 1497 1497 1496 1496 1497 1497 1499 1500 1501 1502 1503 1504 1505 1506 1506 1506 1506 1506 1507 1509 1510 1511 1512 1514 1516 1518 1520 1522 1523 1524 1526 1528 1529 1530 1532 1533 1532 1533
1489 1491 1492 1493 1494 1494 1494 1495 1496 1496 1497 1498 1499 1500 1501 1502 1502 1503 1503 1503 1504 1506 1506 1506 1506 1507 1509 1512 1513 1514 1515 1517 1519 1521 1523 1524 1525 1527 1528 1529 1530 1530 1531
1487 1487 1488 1490 1491 1492 1493 1493 1494 1495 1495 1495 1495 1496 1497 1498 1499 1499 1500 1502 1502 1502 1503 1504 1503 1502 1504 1506 1508 1510 1512 1514 1516 1517 1519 1520 1521 1523 1524 1526 1526 1527 1528
1483 1484 1485 1486 1487 1488 1489 1490 1491 1492 1491 1492 1493 1493 1493 1494 1494 1495 1495 1495 1496 1498 1499 1499 1501 1502 1501 1502 1503 1505 1506 1508 1511 1513 1514 1515 1516 1518 1519 1520 1521 1522 1523
1479 1480 1481 1481 1481 1483 1484 1486 1486 1488 1488 1488 1488 1489 1489 1490 1490 1489 1489 1490 1490 1490 1490 1492 1494 1497 1499 1499 1499 1499 1500 1503 1504 1505 1508 1509 1510 1511 1512 1514 1514 1515 1517
1473 1475 1476 1477 1477 1477 1478 1479 1481 1481 1481 1482 1484 1485 1485 1486 1486 1486 1486 1484 1483 1482 1483 1487 1490 1492 1493 1494 1497 1498 1498 1496 1496 1498 1499 1500 1502 1504 1506 1508 1509 1510 1511
1468 1469 1470 1471 1472 1472 1472 1472 1472 1473 1474 1475 1477 1477 1480 1481 1481 1481 1481 1479 1479 1479 1481 1481 1482 1483 1486 1488 1489 1491 1492 1492 1493 1492 1492 1495 1496 1497 1498 1499 1501 1503 1504
1461 1462 1463 1464 1464 1464 1464 1464 1464 1464 1465 1467 1467 1468 1471 1471 1471 1473 1473 1473 1472 1472 1472 1473 1475 1477 1477 1479 1480 1481 1483 1485 1485 1486 1486 1486 1487 1489 1489 1491 1493 1493 1494
1455 1456 1456 1456 1456 1457 1456 1455 1455 1455 1456 1457 1458 1459 1460 1460 1460 1461 1463 1463 1464 1465 1466 1467 1468 1469 1469 1470 1471 1472 1473 1475 1476 1476 1477 1479 1479 1479 1482 1483 1484 1485 1486
1449 1448 1449 1448 1448 1447 1447 1446 1446 1445 1446 1447 1448 1449 1449 1449 1449 1451 1452 1454 1455 1456 1457 1458 1459 1460 1460 1461 1461 1462 1463 1464 1466 1466 1467 1467 1468 1467 1468 1472 1473 1475 1476
1441 1440 1440 1439 1438 1438 1437 1437 1437 1438 1438 1439 1440 1440 1440 1440 1440 1441 1442 1443 1445 1445 1447 1448 1449 1449 1450 1452 1451 1452 1452 1454 1456 1457 1457 1456 1456 1456 1458 1458 1461 1463 1464
1432 1432 1431 1430 1430 1430 1429 1429 1429 1429 1430 1431 1432 1432 1432 1432 1433 1433 1434 1434 1434 1436 1436 1436 1437 1438 1439 1440 1440 1441 1442 1443 1445 1446 1447 1446 1445 1444 1444 1446 1448 1450 1453
1422 1422 1422 1422 1423 1423 1422 1422 1421 1422 1423 1424 1423 1424 1425 1425 1425 1426 1426 1425 1426 1427 1427 1428 1428 1428 1428 1429 1430 1430 1430 1432 1432 1434 1435 1436 1435 1434 1432 1433 1434 1437 1440
1414 1414 1414 1415 1416 1416 1416 1416 1416 1416 1417 1418 1417 1417 1417 1417 1417 1418 1418 1419 1419 1418 1418 1419 1419 1418 1418 1419 1420 1420 1419 1420 1421 1423 1423 1425 1425 1425 1423 1421 1423 1424 1425